Location: Bednik
(45.3500°N, 16.3833°E)
Time: 00:00:59
(UTC+00:00)

ERBS - Pass Details

Date: 08 August 2020
Orbit: 413 x 420 km, 57.0° (Epoch: 23 September)

Event Time Altitude Azimuth Distance (km) Brightness Sun altitude
Rises 18:55:57 0° 247° (WSW) 2,350 6.6 -7.7°
Reaches altitude 10° 18:58:07 10° 256° (WSW) 1,488 5.7 -8.0°
Maximum altitude 19:01:16 39° 327° (NNW) 641 3.8 -8.5°
Drops below altitude 10° 19:04:25 10° 38° (NE) 1,492 5.0 -8.9°
Sets 19:06:36 0° 46° (NE) 2,357 5.9 -9.2°
